Theta_e
282 282 283 281 281 281 282 281 281 281 282 283 283 283 284 285 285 284 285 285 285 284 284 284 284 284 285 288 291 292 293 293 293 293 293 293 293 293 293 293 293 293 294 294 294 294 294 294 294 294 294 294 294 294 295 295 295 295 296 296 296 297 297 297 298 298 298 299 299 299 299 300 299 300 300 300 300 300 300 300 300 300 301 301 301 301
282 282 282 281 281 281 282 281 280 280 281 282 282 283 283 283 283 284 284 285 284 284 284 284 284 284 284 287 290 292 292 293 293 293 293 293 293 293 293 293 293 293 293 293 293 293 293 294 294 294 294 294 294 294 295 295 295 295 295 296 296 296 297 297 297 297 298 298 298 298 298 298 298 299 299 299 299 300 300 300 300 300 300 300 300 301
282 282 282 281 281 281 281 281 280 280 281 281 282 283 282 282 282 283 284 284 285 285 285 285 285 285 285 286 289 291 291 292 292 292 292 292 292 292 293 293 293 293 293 293 293 293 293 293 293 294 294 294 294 294 294 294 295 295 295 295 295 296 296 296 296 297 297 297 297 297 297 297 298 298 298 298 299 299 299 299 299 300 300 300 300 301
281 281 281 281 281 280 281 281 281 282 282 282 283 283 282 282 282 283 284 284 284 285 285 285 286 286 285 286 287 289 291 291 291 291 292 292 292 292 292 292 292 292 292 292 292 293 293 293 293 293 293 294 294 294 294 294 294 294 294 295 295 295 295 295 295 296 296 296 296 296 296 296 296 297 297 297 298 298 298 298 299 298 299 299 299 300
281 281 281 281 281 281 281 281 281 282 283 283 283 282 282 283 283 284 284 284 285 285 286 286 285 285 284 284 286 288 290 291 291 291 291 291 291 292 292 292 292 292 292 292 292 293 293 293 293 293 293 294 294 294 294 294 294 294 294 294 294 294 294 295 295 295 295 295 295 295 295 295 295 296 296 296 296 297 297 297 297 298 298 298 298 299
280 281 281 281 281 281 281 282 282 283 283 282 282 283 283 283 284 284 285 285 285 285 285 285 284 284 283 284 285 288 289 290 290 291 291 291 291 291 291 291 291 292 292 292 292 292 292 293 293 293 293 293 294 294 294 294 294 294 294 294 294 294 294 294 294 294 294 294 294 294 294 294 295 295 295 295 296 296 296 297 297 297 297 297 298 298
280 280 281 281 281 281 281 282 282 282 282 282 282 283 283 284 285 285 285 285 284 284 284 283 283 283 283 283 285 287 288 288 289 289 290 290 290 290 291 291 291 291 291 292 292 292 292 293 293 293 293 293 293 293 293 293 293 293 293 293 293 293 293 293 294 294 294 294 294 293 294 294 294 294 295 295 295 295 296 296 296 297 297 297 297 298
280 280 281 281 281 281 282 282 282 282 282 282 282 282 283 284 285 285 284 283 282 282 282 282 282 282 283 283 284 285 285 285 286 286 287 288 289 290 290 290 291 291 291 292 292 292 292 292 292 292 293 293 293 293 293 293 293 293 292 292 292 293 293 293 293 293 293 293 293 293 293 294 294 294 294 294 295 295 295 296 296 297 297 297 298 298
280 280 281 281 281 281 281 282 282 283 283 283 283 283 283 284 284 283 282 281 281 281 282 281 282 282 282 282 283 283 284 285 285 285 285 286 286 287 289 290 290 291 291 291 291 292 292 292 292 292 292 292 292 292 292 292 292 292 292 292 292 292 292 292 292 293 293 293 293 293 293 293 293 293 294 294 294 295 295 295 296 296 297 297 298 298
281 281 281 281 282 282 281 281 282 283 283 284 284 284 284 283 282 281 280 280 281 281 282 281 281 281 282 282 282 283 284 285 286 287 288 287 287 288 289 289 289 290 291 291 291 291 292 292 292 292 291 291 292 292 292 291 291 291 291 291 291 291 291 292 292 292 292 292 293 293 293 293 293 294 294 294 294 295 295 295 296 296 297 297 298 298
281 281 281 282 282 282 282 282 282 283 284 285 285 285 284 282 281 280 279 280 280 281 282 281 281 281 281 281 282 283 283 283 284 286 287 288 288 289 289 289 289 289 290 290 290 291 291 291 291 291 291 291 291 291 291 290 290 290 290 291 291 291 291 291 291 292 292 292 293 293 293 294 294 294 294 295 295 295 295 295 295 296 296 297 297 298
282 282 282 282 281 281 282 282 283 284 285 284 283 283 282 281 281 280 280 279 280 280 280 281 281 281 281 281 282 282 283 282 282 283 284 285 285 286 286 286 287 288 288 289 289 289 290 290 290 290 290 290 290 290 290 290 290 290 290 290 290 291 291 291 291 292 292 292 293 293 294 294 294 294 294 294 295 295 295 295 295 295 296 296 297 297
282 282 282 281 281 281 281 282 283 283 284 283 282 280 280 281 281 281 280 280 280 280 280 281 281 281 281 282 282 282 282 282 282 282 282 283 283 283 283 284 284 284 285 285 285 286 288 288 289 289 289 289 289 289 289 289 289 289 290 290 290 291 291 291 292 292 292 292 293 293 293 294 294 294 294 294 294 294 295 295 295 295 295 296 296 297
281 281 281 281 281 281 281 282 282 282 282 282 281 281 281 281 281 281 280 280 280 280 281 280 280 281 282 282 282 283 283 282 282 282 282 282 282 282 283 283 283 283 283 283 283 284 286 286 286 286 288 288 288 288 288 289 289 289 290 290 290 291 291 291 292 292 292 292 293 293 293 293 293 294 294 294 294 294 294 294 295 295 295 295 296 296
281 281 280 280 280 281 282 282 282 282 281 281 281 281 281 281 281 280 280 280 280 280 280 280 280 280 281 282 282 283 283 283 283 282 282 282 282 282 283 283 283 283 283 282 282 283 285 285 284 284 284 285 286 286 287 288 289 290 290 290 291 291 291 291 292 292 292 292 292 293 293 293 293 293 294 294 294 294 294 294 294 294 295 295 295 295
281 280 280 280 280 281 283 282 282 281 281 281 281 281 281 280 280 280 280 279 280 280 280 279 279 279 280 282 283 284 284 283 283 282 282 282 283 283 283 282 282 282 282 282 282 282 283 283 283 283 283 285 286 288 288 289 289 290 290 291 291 291 291 291 291 292 292 292 292 292 293 293 293 293 293 293 293 294 294 294 294 294 294 295 295 295
281 281 280 281 281 282 282 282 281 281 280 281 281 281 281 280 280 280 280 280 280 279 279 279 278 278 279 280 282 283 284 283 283 282 282 282 282 283 283 282 281 281 281 281 282 282 282 282 283 283 283 285 287 288 289 289 290 290 290 290 291 291 291 291 291 292 292 292 292 292 292 292 292 293 293 293 293 293 293 294 294 294 294 294 295 295
281 281 281 281 281 281 281 281 280 280 280 280 280 281 281 281 281 280 280 280 279 279 279 279 278 278 278 279 281 283 284 283 283 282 281 280 281 282 282 281 281 280 280 281 281 282 282 282 282 283 284 287 288 289 289 289 290 290 290 290 291 291 291 291 291 292 292 292 292 292 292 292 292 292 292 292 293 293 293 293 293 294 294 294 294 295
281 281 281 281 281 280 280 280 280 280 280 280 280 280 280 281 281 281 280 280 280 279 279 279 279 279 279 279 281 283 285 284 282 281 280 279 280 281 282 281 281 280 280 281 281 282 282 282 283 285 287 288 288 289 289 289 289 290 290 290 290 291 291 291 291 291 291 291 292 292 292 292 292 292 292 292 292 293 293 293 294 294 294 294 295 295
281 282 281 281 280 280 280 280 281 281 281 281 281 281 280 280 280 280 280 280 280 280 280 280 279 279 280 280 282 283 284 283 282 280 279 279 279 280 280 280 280 280 279 280 281 281 282 282 283 284 286 287 288 288 289 289 289 290 290 290 290 291 291 291 291 291 291 291 291 292 292 292 292 292 292 292 292 293 293 293 294 294 294 294 294 294
282 281 282 281 281 280 280 280 281 282 283 283 282 281 281 280 280 280 281 281 281 281 281 280 280 281 281 281 282 283 283 282 280 279 278 278 278 279 280 279 279 279 279 280 281 281 282 282 282 283 285 286 288 288 289 289 289 290 290 290 290 290 291 291 291 291 291 291 291 291 291 292 292 292 292 292 292 292 293 293 293 293 293 293 294 294
282 281 282 282 281 281 281 281 282 283 284 283 282 281 281 281 280 280 281 281 281 281 281 281 281 282 282 281 281 282 282 281 280 279 278 277 277 278 279 279 279 279 279 279 280 281 281 282 282 283 285 287 288 288 289 289 289 290 290 290 290 290 290 290 290 290 291 291 291 291 291 291 292 292 292 292 292 292 292 292 293 293 293 293 293 294
282 282 282 282 282 282 282 282 283 283 284 283 283 283 282 282 282 282 282 282 282 282 281 281 282 282 281 281 281 281 281 280 280 279 278 277 276 277 279 279 279 279 279 279 280 281 281 281 282 283 285 287 288 288 288 289 289 289 289 290 290 290 290 290 290 290 290 291 291 291 291 291 291 291 291 291 292 292 292 292 292 292 293 293 293 293
283 283 282 283 283 283 283 283 284 284 285 285 285 285 285 284 284 284 284 283 282 282 281 281 280 280 280 280 280 280 280 280 280 279 278 277 277 278 279 279 279 279 279 279 280 280 281 281 282 282 283 286 287 288 288 288 289 289 289 289 289 289 290 290 290 290 290 290 291 291 291 291 291 291 291 291 291 291 292 292 292 292 292 292 293 293
283 283 283 283 284 285 285 285 286 286 286 286 286 286 286 286 285 284 283 282 282 281 280 279 278 278 278 279 279 279 279 278 279 279 278 277 277 278 279 279 279 278 279 279 280 281 281 281 281 282 282 284 286 287 288 288 288 289 289 289 289 289 289 290 290 290 290 290 290 290 291 291 291 291 291 291 291 291 291 292 292 292 292 292 292 292
285 285 286 286 287 288 288 289 289 289 289 288 287 286 285 284 283 282 281 280 280 280 279 277 277 277 277 277 277 278 278 278 279 279 279 278 277 277 278 279 279 278 279 279 280 281 281 281 281 281 281 282 284 286 287 287 288 288 288 289 289 289 289 289 290 290 290 290 290 290 290 290 290 290 291 291 291 291 291 291 291 292 292 292 292 292
287 288 288 288 289 289 289 289 290 290 290 289 288 286 284 283 281 280 279 279 279 279 278 276 276 276 276 276 277 277 278 279 280 280 280 278 277 277 277 278 279 279 279 279 280 281 281 281 281 281 281 281 282 284 286 287 287 288 288 288 288 289 289 289 289 289 289 289 290 290 290 290 290 290 290 291 291 291 291 291 291 291 291 291 291 291
287 287 288 288 288 289 289 289 288 288 287 287 287 286 285 282 280 279 278 279 279 278 277 276 275 275 276 276 276 277 278 279 280 280 280 279 278 277 278 279 279 279 279 279 280 281 281 281 280 280 280 281 281 282 284 286 287 287 288 288 288 288 288 288 289 289 289 289 289 289 290 290 290 290 290 290 290 291 291 291 291 291 291 290 289 288
287 287 288 288 288 287 287 286 286 286 286 286 286 286 285 282 280 279 279 279 279 278 277 277 276 276 276 276 277 277 278 278 279 279 280 278 277 277 278 279 279 279 279 278 279 279 280 280 280 280 280 281 282 282 283 284 285 285 286 287 287 287 288 288 288 288 289 289 289 289 289 290 290 290 290 290 290 290 290 290 290 290 289 289 288 287
285 285 285 285 285 284 284 282 283 284 285 285 285 285 284 282 281 280 280 280 279 278 277 277 277 277 276 276 276 276 276 277 278 279 279 278 277 277 278 278 279 279 279 278 277 277 277 278 279 280 280 281 281 281 281 282 282 283 283 285 285 286 287 287 288 288 288 289 289 289 289 289 289 289 290 290 290 290 290 290 290 289 288 287 287 286
282 282 281 281 281 281 281 281 281 282 283 284 284 284 283 282 281 281 280 280 279 278 277 277 277 277 277 276 275 274 275 277 278 280 280 278 277 277 278 278 278 279 279 278 276 275 275 276 278 279 280 280 281 281 281 281 282 282 282 282 283 284 286 287 287 287 288 288 288 289 289 289 289 289 289 289 289 290 290 290 289 288 287 286 286 285
281 281 280 280 280 280 281 281 281 281 281 281 282 282 282 282 282 281 281 280 280 279 278 278 277 277 277 276 275 275 275 277 279 281 281 279 278 278 278 278 278 278 279 278 277 275 274 275 277 279 279 280 280 280 281 282 282 281 282 282 282 283 285 286 286 286 287 287 288 288 288 288 288 288 289 289 289 289 289 289 289 288 287 286 285 285
280 280 280 280 280 280 280 280 280 280 280 280 280 281 281 282 282 282 282 281 280 280 279 278 277 277 277 277 276 276 277 278 280 282 282 280 278 278 278 278 278 278 278 279 278 277 276 276 277 278 279 279 280 280 281 281 282 282 282 281 281 282 284 285 285 285 285 286 286 286 287 287 288 288 288 288 289 289 289 289 289 289 287 286 285 285
280 280 279 279 279 279 279 280 280 280 280 280 280 281 281 281 281 282 282 281 281 281 280 279 278 277 277 276 276 277 277 278 280 282 283 280 279 278 278 278 278 278 278 278 278 277 277 277 277 277 278 279 280 280 280 281 282 282 282 281 281 281 282 283 283 283 283 284 284 284 285 285 286 287 287 287 288 288 288 289 289 289 289 287 286 286
279 279 279 279 279 279 279 279 279 280 280 280 280 281 281 281 281 281 281 281 281 281 281 280 279 279 278 277 276 276 277 278 280 282 283 281 279 278 278 278 278 278 277 277 277 277 277 277 277 278 277 278 279 279 280 281 281 281 281 281 281 281 281 282 282 282 282 282 282 282 282 283 283 284 285 286 287 288 288 289 289 289 289 289 288 287
278 278 279 278 278 278 278 279 279 279 280 280 280 280 281 281 281 281 281 281 281 281 282 281 281 280 280 279 278 277 277 279 280 282 283 281 280 279 278 278 278 278 277 277 277 277 276 277 277 278 278 277 277 278 280 280 281 281 281 281 281 281 282 282 282 282 282 281 282 282 282 282 282 283 284 286 287 288 288 289 289 289 289 289 289 289
278 278 278 278 278 278 278 279 279 279 279 279 280 280 280 280 281 281 281 281 281 281 281 281 282 281 282 281 280 279 279 280 281 281 282 281 280 279 278 278 279 279 278 277 277 277 277 276 277 277 277 277 277 277 278 280 280 280 280 281 281 281 282 282 282 282 282 282 282 282 282 283 283 283 284 286 287 287 288 288 288 288 289 289 289 289
278 278 278 278 278 278 278 278 279 279 279 279 280 280 280 280 280 280 281 280 280 280 280 280 281 281 282 282 282 281 281 281 281 281 281 281 281 280 279 279 279 279 279 279 278 278 277 276 276 276 276 277 277 278 279 279 279 279 280 281 281 282 282 282 282 283 282 282 283 283 283 284 283 283 283 284 284 284 284 285 286 287 288 288 288 289
277 277 278 278 279 279 278 278 279 279 279 280 280 280 280 280 281 281 281 280 280 280 280 280 280 280 280 280 281 282 282 281 281 281 281 281 281 280 280 279 279 279 280 280 279 278 278 277 276 276 276 276 277 278 279 279 279 279 280 281 281 281 282 282 283 283 283 282 283 283 283 283 283 282 282 282 282 282 282 282 283 285 285 285 285 287
278 278 278 279 279 279 279 279 279 279 280 280 280 281 281 280 280 280 280 280 280 280 280 280 280 280 280 281 281 281 282 281 281 282 281 281 281 281 280 280 279 279 280 280 280 279 278 277 277 277 277 277 277 278 278 278 279 280 280 280 280 280 282 282 282 282 282 282 282 282 282 282 282 282 282 282 282 282 282 282 283 284 284 284 283 284
278 278 278 278 279 279 279 280 280 280 280 280 280 280 280 279 279 279 279 279 279 280 280 280 280 280 280 280 280 280 281 281 281 281 281 281 281 281 280 280 280 280 279 279 279 279 279 278 278 278 278 278 278 278 278 279 280 281 281 280 280 280 281 282 283 283 283 283 283 283 283 283 283 283 283 283 283 283 283 283 283 283 284 284 284 283
278 278 278 278 278 279 279 280 280 280 280 280 279 279 278 279 278 278 278 278 278 278 279 279 279 278 278 279 279 280 280 280 280 281 280 280 280 280 280 280 280 280 280 279 279 279 279 279 278 278 278 278 278 278 278 279 280 280 281 280 280 281 282 282 282 282 282 282 282 282 283 283 283 282 283 283 283 283 284 284 284 284 285 285 285 284
278 278 278 278 279 279 280 280 280 280 279 279 278 278 278 278 278 278 278 278 278 278 278 278 278 278 277 277 278 279 279 279 280 280 280 280 280 280 280 280 280 280 280 279 278 278 279 279 279 279 279 279 279 278 278 278 279 280 281 281 281 280 279 280 281 282 282 282 282 282 283 283 283 283 283 283 283 283 284 284 285 286 286 286 285 285
278 278 278 279 279 279 279 279 279 278 278 278 278 278 278 278 279 279 278 278 278 278 278 278 278 278 277 277 277 278 278 279 279 279 280 281 281 281 281 281 281 281 281 280 279 279 279 279 279 279 280 280 279 279 278 279 279 279 280 281 281 280 279 280 281 282 282 282 282 282 282 282 282 283 283 283 283 284 284 284 285 285 286 286 285 285
278 278 278 279 279 278 278 278 278 278 278 277 277 277 278 278 279 279 278 277 278 278 278 278 278 277 276 276 276 277 277 278 279 279 279 281 282 283 283 282 281 281 281 281 280 279 279 278 279 279 280 280 280 279 279 279 279 279 280 281 281 281 281 282 282 282 282 281 282 282 282 282 283 282 282 283 283 284 284 284 284 284 284 284 284 284
278 278 278 278 278 277 277 277 277 277 277 277 277 277 278 278 278 278 278 278 277 277 278 278 277 276 276 276 276 277 277 277 278 278 279 280 280 281 282 282 282 282 281 281 281 281 280 280 279 280 280 280 279 279 279 279 279 279 279 280 281 281 281 282 282 281 281 282 282 282 282 283 283 282 282 282 282 283 283 283 283 283 283 283 283 283
277 277 277 277 277 277 277 277 277 277 276 277 277 277 278 278 278 278 278 278 278 277 278 278 277 276 276 276 276 276 276 276 277 277 278 279 279 280 280 281 282 282 282 282 282 282 281 281 281 280 280 279 278 278 279 279 279 279 279 280 280 280 280 281 281 281 282 282 282 283 283 283 283 282 282 282 282 282 282 282 283 283 283 283 283 283
277 277 277 276 276 276 276 276 276 276 276 276 276 277 277 278 278 278 277 278 278 277 277 277 276 276 276 276 276 277 277 277 277 277 278 278 279 280 280 280 281 281 282 282 282 282 282 282 282 281 280 279 278 278 278 279 280 280 280 280 280 280 280 281 282 282 283 283 283 283 283 283 282 281 281 281 281 281 281 282 282 283 283 283 283 283
277 276 276 276 276 276 276 276 276 276 276 276 276 276 277 278 278 279 278 277 277 277 276 276 276 276 276 276 276 277 277 277 277 278 278 279 279 280 280 280 280 280 280 281 281 281 282 282 282 283 282 281 280 279 279 280 280 280 281 281 281 281 281 281 282 282 283 283 283 283 283 283 282 282 281 280 280 280 280 281 281 282 283 283 284 284
276 276 276 276 276 275 275 276 276 276 276 276 276 276 276 277 277 277 277 277 277 277 276 276 276 276 275 276 276 277 277 277 277 278 278 279 279 279 279 279 279 279 279 279 279 280 280 280 281 283 284 284 283 281 280 280 281 281 281 281 281 281 281 281 282 282 282 283 282 282 283 282 282 282 281 280 280 279 280 280 281 282 283 283 284 284
276 276 276 276 275 275 275 275 276 276 276 276 276 276 276 276 276 277 277 277 277 276 276 276 276 276 276 276 276 277 277 277 277 277 278 279 279 279 279 279 279 279 278 278 278 278 278 278 279 280 282 285 286 285 283 282 281 281 281 281 281 282 281 281 281 282 283 283 283 282 282 282 282 282 281 280 280 279 279 279 280 281 282 283 284 284
Wind_Speed
3 4 4 4 4 4 5 5 5 6 6 7 7 7 8 9 9 9 11 11 11 10 9 9 9 9 11 15 18 21 23 24 25 25 25 26 26 26 26 26 26 26 26 26 26 26 26 26 27 27 27 27 27 27 27 27 27 27 27 27 27 27 27 27 27 27 27 27 26 26 26 26 26 26 26 25 25 25 25 25 25 25 25 25 25 26
4 4 4 4 4 4 5 5 5 5 7 8 8 9 9 10 9 9 9 10 10 9 8 8 8 8 9 12 16 20 22 23 24 25 25 26 26 26 26 26 26 26 26 27 27 27 27 27 27 27 27 27 27 27 27 27 27 27 27 27 27 27 27 27 27 27 26 26 26 26 26 25 25 25 25 25 25 25 25 25 25 25 25 25 25 25
4 4 4 4 4 5 5 6 5 5 7 8 9 10 10 10 10 9 8 8 8 7 7 7 8 8 9 11 14 19 21 23 24 25 25 26 26 26 26 26 26 27 27 27 27 27 27 27 27 27 27 27 27 27 27 27 27 27 27 27 27 27 27 27 26 26 26 26 25 25 25 25 24 24 24 24 24 24 25 25 25 25 25 25 25 25
4 4 4 4 4 4 5 6 6 6 7 9 10 10 10 10 9 8 7 7 7 6 6 7 8 8 8 9 11 16 20 22 24 25 25 26 26 26 26 26 27 27 27 27 27 27 27 27 27 27 27 27 27 27 27 27 27 27 27 27 27 27 27 26 26 26 25 25 25 24 24 24 24 24 24 24 24 24 25 25 25 25 25 25 25 26
4 5 5 4 4 5 5 6 7 7 8 8 9 9 9 8 8 7 7 6 6 6 7 7 7 8 7 7 10 14 19 22 24 25 25 26 26 26 26 26 27 27 27 27 27 27 27 27 27 27 27 27 27 27 27 27 27 27 27 27 27 27 27 26 26 26 25 25 25 25 24 24 24 24 24 24 24 25 25 25 25 25 25 25 25 26
4 4 5 4 4 5 5 5 6 7 7 7 7 8 8 7 7 6 6 6 6 6 6 6 6 7 7 8 11 15 19 21 23 24 25 25 26 26 26 26 26 27 27 27 27 27 27 27 27 27 27 27 27 27 27 27 27 28 28 27 27 27 27 26 26 26 25 25 25 25 25 24 24 24 24 24 24 25 25 25 25 25 25 25 25 26
5 4 4 4 4 4 5 5 6 6 6 6 7 7 7 7 6 6 6 6 6 6 6 6 6 6 7 8 11 14 16 18 20 22 23 24 25 25 25 26 26 26 27 27 27 27 27 27 27 27 27 27 27 27 28 28 28 28 27 27 27 27 27 26 26 26 26 25 25 25 25 24 24 24 24 24 24 24 24 25 25 25 25 25 25 26
6 5 5 5 5 5 5 5 5 6 7 7 7 7 7 7 6 6 6 6 5 5 5 6 6 6 6 7 9 11 11 13 14 15 17 19 20 22 23 24 25 26 26 26 27 27 27 27 27 27 27 27 27 28 28 28 28 27 27 27 27 26 26 26 26 26 26 25 25 25 25 24 24 24 24 24 24 24 24 24 25 25 25 25 25 26
7 6 6 5 6 6 6 5 6 6 7 7 7 8 8 7 6 5 5 5 5 5 5 5 6 7 7 6 7 8 9 10 10 11 13 14 14 16 19 21 23 24 25 25 26 26 26 27 27 27 27 27 28 28 28 27 27 27 27 26 26 26 26 26 26 26 26 25 25 25 25 25 24 24 24 24 24 24 24 25 25 25 25 25 26 26
7 7 6 6 5 6 6 7 7 7 7 7 7 6 6 7 7 6 6 6 5 5 5 5 6 7 7 6 6 7 9 11 13 15 17 17 18 19 19 19 19 20 23 24 25 26 26 27 27 27 27 27 27 27 27 27 26 26 26 26 26 25 25 26 26 26 26 26 26 26 25 25 25 25 25 25 25 25 25 25 25 25 25 26 26 26
6 6 6 6 6 5 5 6 7 7 7 6 6 5 5 5 6 7 8 8 8 7 6 6 6 6 7 7 7 7 8 9 10 13 16 18 19 20 20 19 19 19 21 22 24 25 25 26 27 27 27 27 27 26 26 26 25 25 25 25 25 25 25 25 26 26 26 26 26 26 26 26 26 26 25 25 25 25 25 25 25 25 26 26 26 26
6 6 5 5 5 4 4 5 6 6 5 5 5 5 5 4 5 6 8 9 9 9 8 6 6 6 6 6 7 7 7 7 8 8 9 11 12 12 12 12 13 15 17 18 20 21 23 25 25 26 25 25 25 25 25 24 24 25 25 25 25 25 25 26 26 26 26 26 26 26 26 26 26 26 26 26 26 25 25 25 25 25 26 26 26 27
5 5 4 4 4 5 6 6 5 4 4 4 5 6 6 6 5 5 7 8 9 9 8 8 7 6 6 6 6 6 7 7 7 7 7 6 6 6 6 6 7 8 10 11 13 14 18 21 22 23 23 23 23 24 24 24 24 24 25 25 25 26 26 26 26 26 27 27 27 27 27 26 26 26 26 26 26 26 26 26 26 26 26 26 26 27
5 5 5 6 6 6 7 7 6 5 4 5 5 6 7 6 6 6 7 8 8 8 8 9 9 7 6 7 6 6 6 6 6 6 6 5 5 4 5 6 7 8 8 9 10 11 14 15 16 17 19 20 21 22 21 22 23 24 25 25 26 26 26 27 27 27 27 27 27 27 27 27 27 27 26 26 26 26 26 26 26 26 26 26 27 27
6 6 7 7 7 7 6 6 5 5 6 6 6 6 7 6 6 6 7 8 8 8 8 9 9 9 6 6 5 5 6 6 6 6 6 5 5 4 5 7 8 9 9 9 10 11 13 12 11 11 13 15 17 18 20 22 23 25 25 26 26 27 27 27 27 27 27 27 27 27 27 27 27 27 27 27 27 26 26 26 26 26 26 26 26 26
6 6 7 8 8 7 6 5 6 7 7 7 7 7 7 7 7 7 8 8 9 8 8 9 10 9 7 5 5 5 5 5 5 5 7 7 6 5 6 7 8 9 9 9 10 10 10 9 9 10 11 15 18 21 24 24 25 26 26 27 27 27 27 27 27 27 27 27 27 27 27 27 27 27 27 27 26 26 26 26 26 26 26 26 26 26
6 6 7 8 7 7 6 6 7 7 7 7 7 7 7 7 7 7 7 8 8 7 7 8 9 8 7 5 4 4 4 4 5 5 7 9 8 7 7 7 8 9 10 10 10 9 9 9 9 9 10 15 20 23 25 25 26 26 27 27 27 27 27 27 28 28 28 28 28 27 27 27 27 27 26 26 26 26 26 26 26 26 26 26 25 26
6 7 7 7 7 7 7 7 7 6 7 7 7 7 7 7 6 7 7 7 8 8 8 8 7 7 7 6 5 4 4 5 5 6 8 10 10 8 7 6 7 9 10 10 9 9 9 9 9 10 12 19 22 24 26 26 27 27 27 27 27 27 27 28 28 28 28 28 28 28 27 27 27 26 26 26 26 26 26 26 26 26 26 26 26 26
7 7 7 7 7 7 7 7 7 7 7 7 7 7 8 8 7 7 7 8 8 9 9 9 8 7 7 7 6 5 4 5 6 7 9 10 10 9 6 6 7 8 9 9 9 9 8 9 11 14 18 22 24 26 26 27 27 27 27 27 28 28 28 28 28 28 28 28 28 27 27 27 27 26 26 26 26 26 26 26 26 26 26 26 26 26
8 7 7 7 8 8 8 8 8 8 8 8 8 8 8 8 8 8 9 9 8 8 7 8 8 7 6 7 7 6 5 6 6 7 9 10 10 8 6 5 6 8 9 9 8 8 8 8 10 13 18 21 23 25 26 27 27 27 28 28 28 28 28 28 28 28 28 28 28 27 27 27 27 26 26 26 26 26 26 26 26 26 26 26 26 26
8 8 8 7 7 7 7 7 8 9 9 9 8 8 9 9 9 9 9 9 8 7 6 6 6 6 5 7 8 8 7 7 7 7 7 8 8 7 5 5 6 7 9 9 8 8 8 8 9 10 14 19 23 25 26 27 27 28 28 28 28 28 28 28 28 28 28 28 28 27 27 27 26 26 26 26 26 26 26 26 26 26 26 26 26 26
8 8 7 7 7 7 8 9 9 10 10 9 8 8 8 9 9 9 9 8 7 6 6 6 6 7 7 9 9 9 7 6 6 6 6 7 8 8 5 5 5 7 9 8 8 7 8 8 9 10 14 20 24 26 27 27 28 28 28 28 28 28 28 28 28 28 28 27 27 27 27 27 26 26 26 26 26 26 26 26 26 26 26 26 26 26
8 8 9 9 9 8 9 9 9 9 9 9 9 8 7 8 8 8 7 6 6 6 7 8 8 9 9 9 9 8 6 5 5 5 5 7 9 8 5 5 6 7 8 7 7 8 8 9 9 11 15 20 24 25 27 27 28 28 28 28 28 28 28 28 28 27 27 27 27 27 27 27 27 27 27 27 26 26 26 26 26 26 26 26 26 26
8 9 9 8 8 8 8 8 8 8 8 8 8 7 7 6 6 5 5 6 7 8 8 9 10 9 8 9 8 7 6 4 4 4 5 6 7 7 5 5 7 8 9 8 7 8 9 9 9 10 11 17 22 24 26 27 28 28 28 28 28 28 27 27 27 27 27 27 27 27 27 27 27 27 27 27 27 26 26 26 26 26 26 26 26 26
8 8 8 8 9 11 11 11 11 11 10 9 8 7 6 6 7 8 8 8 8 8 9 9 10 9 8 8 8 6 5 4 3 3 4 5 7 7 6 5 7 8 9 8 7 8 9 9 10 10 10 14 18 23 25 26 27 27 28 27 27 27 27 27 27 27 27 27 27 27 27 27 27 27 27 27 27 26 26 26 26 26 27 27 27 27
13 13 13 15 17 20 21 21 21 20 19 14 10 8 7 8 8 8 8 8 8 8 8 9 9 9 8 7 7 6 5 4 3 4 4 5 6 7 6 5 6 8 10 8 8 8 9 10 10 10 10 12 15 20 23 25 26 27 27 27 27 27 27 27 27 28 28 28 28 27 27 27 27 27 27 27 27 26 26 26 26 27 27 27 26 26
20 21 22 23 24 24 24 23 23 23 23 20 17 14 11 9 8 8 8 7 7 7 8 8 9 9 8 8 7 7 6 5 4 4 4 5 6 7 6 5 6 8 10 9 8 8 10 11 10 10 10 10 12 15 20 22 24 25 26 27 27 27 27 28 28 28 28 27 27 27 27 27 27 27 27 27 26 26 26 26 27 27 26 25 23 20
21 21 21 21 21 21 21 21 21 21 21 22 22 20 15 10 8 8 8 7 6 7 7 8 9 8 8 8 8 7 8 6 5 4 4 4 5 6 6 6 6 7 9 8 8 9 10 10 10 9 10 10 10 11 15 19 22 23 24 26 26 27 27 27 27 27 27 27 27 27 27 27 27 27 27 27 26 26 26 27 27 26 24 20 15 12
17 17 17 17 18 18 18 18 18 19 20 21 20 18 13 8 7 7 7 7 7 7 8 8 8 8 8 8 8 8 8 7 5 4 3 4 5 5 5 6 7 7 8 8 8 8 8 7 7 7 7 9 10 10 11 14 17 18 20 23 24 25 26 26 26 26 26 26 26 27 27 27 27 27 26 26 26 26 26 27 26 23 18 14 11 9
10 10 11 12 13 14 14 13 13 15 17 18 18 16 12 8 7 7 7 7 7 7 8 8 8 8 8 8 8 8 7 6 4 3 2 4 5 5 6 7 7 7 6 6 6 6 6 5 5 5 6 8 9 9 9 10 11 12 13 17 19 20 23 24 25 25 26 26 26 26 26 26 26 26 26 26 26 26 26 27 25 20 12 10 9 9
7 8 8 8 9 9 9 9 9 11 13 14 14 13 10 8 7 7 7 6 7 7 8 8 8 8 8 7 7 7 6 5 4 3 3 4 5 5 7 7 7 7 5 5 6 6 7 5 5 5 6 8 9 9 10 10 10 10 10 11 13 15 19 21 22 23 24 24 25 25 26 26 26 26 26 26 26 26 26 27 24 18 11 10 9 9
7 8 8 7 7 7 7 7 8 8 8 8 8 8 8 8 7 7 6 6 6 6 7 8 8 8 8 7 7 7 7 6 6 6 6 5 5 5 6 7 7 7 5 5 6 6 7 6 6 5 6 7 8 9 10 10 10 10 10 10 10 12 16 18 19 19 19 21 22 23 24 25 25 26 26 26 26 26 26 26 24 19 12 10 9 9
8 8 7 8 7 7 7 7 7 7 6 6 6 6 7 7 7 7 6 6 6 6 7 7 8 8 8 9 9 9 8 8 8 9 9 6 5 5 6 7 8 8 7 7 7 7 7 7 7 7 7 7 7 8 9 10 10 10 10 10 10 11 13 14 14 14 14 16 17 19 21 22 23 24 25 25 25 25 26 26 24 21 16 11 10 9
9 8 8 8 7 7 7 7 7 7 7 6 6 6 6 6 6 7 7 6 6 6 6 7 8 8 9 9 9 9 10 9 9 10 10 7 5 5 6 8 8 8 8 7 7 7 7 9 9 8 7 7 7 7 8 9 10 10 8 9 9 9 11 11 11 11 11 12 12 13 14 16 17 19 21 22 22 23 24 24 24 23 21 16 12 10
8 8 8 7 7 7 7 7 7 7 7 7 7 7 7 6 6 6 6 6 6 6 6 7 7 8 8 9 9 10 10 10 10 11 10 8 6 6 7 8 8 8 8 8 7 7 7 9 10 10 9 9 8 7 7 8 8 9 8 8 9 8 9 9 9 9 10 10 10 10 10 10 11 13 15 17 19 21 22 24 25 25 25 22 19 15
7 8 8 7 7 7 8 8 8 8 7 7 7 7 7 7 6 6 6 6 7 7 8 8 8 8 8 9 10 11 11 11 11 12 12 9 8 7 7 7 8 9 9 9 8 8 8 9 10 11 11 10 9 8 7 7 7 8 8 9 9 9 9 9 9 9 9 10 10 10 9 9 9 10 11 15 19 21 23 24 25 25 26 25 24 21
7 7 7 7 7 7 8 8 7 7 7 7 7 7 7 7 7 7 7 7 7 8 8 9 10 10 11 10 11 11 12 11 12 12 13 11 9 8 8 8 9 9 9 9 9 9 9 10 10 11 10 10 9 8 8 8 8 8 9 9 9 9 9 9 9 9 9 10 10 10 10 9 9 10 11 15 18 19 21 23 23 23 25 25 25 25
7 7 7 7 7 7 7 7 7 7 7 7 7 8 8 8 8 9 8 8 8 8 9 9 9 11 14 14 14 14 14 14 15 15 15 12 10 9 9 9 10 10 9 10 10 10 10 10 10 10 10 9 9 10 10 10 10 10 10 9 9 9 10 9 9 9 9 10 11 11 11 10 10 10 10 12 12 12 13 14 15 17 20 20 22 23
7 7 7 7 7 7 7 7 7 7 7 8 8 8 8 9 9 9 9 9 9 9 10 10 10 10 12 14 15 16 16 16 16 15 15 13 11 10 10 10 10 10 10 10 10 10 10 10 10 10 10 10 10 10 10 10 11 11 11 10 10 9 9 9 9 9 9 9 11 11 11 10 9 9 9 9 8 9 10 10 11 12 13 12 14 17
7 7 7 7 7 7 7 8 8 8 8 8 9 9 9 9 9 9 9 9 9 9 10 10 10 10 11 12 13 14 14 13 13 13 12 11 10 10 10 10 10 10 10 10 9 9 10 10 11 11 11 10 10 11 10 10 11 12 12 10 9 8 9 9 9 8 8 9 9 10 10 9 9 9 9 9 9 9 9 9 9 10 11 9 9 10
7 7 7 7 7 8 8 8 8 8 8 8 8 8 7 7 8 8 8 8 8 8 8 9 9 9 10 10 11 11 12 12 12 12 10 11 11 11 10 10 10 10 10 10 10 10 10 11 11 12 11 11 12 12 12 12 13 14 15 12 11 11 11 11 10 10 9 9 9 9 10 10 10 10 10 10 10 9 9 9 10 10 10 9 8 9
8 8 8 7 7 7 7 8 8 9 8 8 8 7 7 7 7 7 8 8 8 7 7 8 8 9 10 10 10 10 10 10 10 11 11 12 12 12 11 10 10 10 10 10 10 10 11 11 12 12 12 11 11 11 12 13 13 14 13 13 13 13 12 11 9 8 9 9 9 9 10 10 10 10 11 11 10 10 10 10 11 12 12 10 9 9
8 8 8 8 8 8 8 9 8 8 8 7 7 7 7 7 7 8 9 9 9 9 9 8 9 9 10 11 11 10 9 8 9 9 10 10 11 11 11 11 11 10 9 10 10 11 11 11 12 12 12 11 11 12 13 13 13 13 13 13 12 11 8 8 7 7 8 9 9 9 10 10 10 10 10 10 10 9 9 11 13 13 12 10 9 9
8 7 7 7 7 7 8 7 7 7 7 8 8 8 8 7 8 8 8 8 9 9 9 8 8 9 10 11 11 11 10 8 8 9 9 10 10 11 11 11 11 11 10 9 9 10 10 11 11 11 11 11 11 12 12 13 13 13 13 13 12 12 10 9 9 10 10 9 9 8 9 9 10 10 10 10 10 10 9 9 9 9 10 9 9 9
7 7 7 7 7 7 8 8 8 8 8 8 8 8 8 8 8 8 8 8 9 9 9 8 8 8 9 9 9 9 9 9 9 8 8 10 12 13 12 11 10 10 10 10 10 10 10 10 11 11 10 10 11 12 13 13 13 13 13 13 13 12 12 12 11 11 11 10 10 9 9 9 9 10 10 10 9 9 9 9 9 9 9 8 9 9
7 7 7 7 7 8 8 8 8 8 8 8 9 8 8 8 8 7 8 9 9 9 9 8 8 8 9 10 9 9 9 9 9 9 8 8 8 9 9 9 9 9 9 9 10 10 10 11 11 11 11 11 12 12 13 13 13 13 13 13 12 12 12 12 11 11 11 11 11 11 11 10 9 9 9 10 10 10 9 9 10 10 10 9 9 10
7 7 8 8 8 8 8 8 8 8 8 9 9 9 8 8 8 8 8 8 8 9 9 8 8 9 10 10 10 10 10 10 10 10 9 9 8 8 8 8 9 9 9 9 10 11 11 12 12 12 11 11 12 12 13 13 13 13 13 12 12 11 11 11 11 10 10 11 11 11 10 9 8 9 10 10 10 10 10 10 10 10 10 10 10 10
8 8 8 8 8 8 8 8 8 8 9 9 9 9 8 8 9 9 9 8 8 8 9 9 9 9 10 10 10 10 10 11 11 11 10 9 9 9 8 8 8 8 9 10 11 12 12 13 13 13 12 12 12 13 13 13 12 12 12 11 11 11 11 11 11 10 10 11 11 10 8 8 8 9 10 11 11 11 11 11 11 10 9 9 10 10
8 8 8 8 8 8 8 8 8 9 9 10 10 9 9 9 10 11 9 9 8 8 8 9 9 10 10 10 10 10 11 11 11 10 10 10 9 9 8 8 8 8 9 9 10 10 10 12 13 13 13 12 13 13 14 13 12 12 11 11 10 10 11 11 11 10 10 10 11 10 9 8 8 9 9 11 12 13 13 12 11 10 9 9 9 10
8 8 8 8 8 8 8 8 9 9 9 10 10 10 9 9 9 8 8 8 8 8 8 9 9 10 10 11 10 11 11 11 10 10 10 9 9 9 8 8 8 9 9 8 8 8 8 8 9 11 13 14 14 13 13 12 12 11 10 10 10 9 10 11 10 10 10 11 11 11 10 9 9 9 8 10 12 13 14 13 12 10 9 9 9 9
8 8 8 8 8 8 8 8 9 9 10 10 10 10 10 9 9 9 8 8 8 8 9 9 9 10 10 11 11 11 11 11 11 11 10 9 9 9 9 9 9 9 10 8 8 7 7 7 7 7 9 12 14 13 10 10 10 10 9 9 9 9 9 10 10 11 11 11 11 10 10 10 9 9 8 9 11 12 13 13 12 11 9 8 8 9
Wind_Direction
300 304 306 309 308 304 302 307 309 309 308 308 307 305 302 300 297 294 293 291 289 286 284 283 282 283 285 289 292 295 297 299 300 301 301 301 301 302 302 302 302 302 303 303 303 304 304 304 304 303 302 302 301 300 299 298 298 297 296 295 295 294 293 293 292 292 291 291 291 290 290 289 289 288 288 287 286 286 285 284 284 283 282 282 281 280
300 301 302 306 306 304 302 307 309 309 308 307 304 302 300 297 295 292 290 286 284 282 283 284 285 286 286 288 292 295 297 299 300 300 301 301 301 302 302 302 303 303 303 303 303 303 303 303 302 302 301 300 300 299 299 298 297 297 296 296 295 295 294 294 293 293 292 292 292 291 291 290 290 289 288 287 286 285 284 283 282 281 280 279 278 278
305 303 304 306 306 306 305 309 308 305 302 300 298 296 294 293 291 289 288 286 284 284 285 288 290 290 288 288 292 295 297 298 300 300 301 301 302 302 303 303 303 303 303 303 303 302 302 302 301 301 300 300 299 298 298 298 297 297 297 296 296 295 295 295 294 294 294 293 293 293 292 292 291 290 289 288 287 286 284 283 282 281 280 280 279 278
306 305 308 309 306 303 303 306 304 301 296 294 292 290 288 287 286 285 285 287 289 290 290 289 289 289 289 289 291 294 297 299 300 301 302 302 302 302 303 303 303 303 302 302 302 301 301 300 300 300 299 299 298 298 298 298 298 298 297 297 297 297 296 296 296 296 296 295 295 295 294 294 293 292 290 289 288 287 285 284 284 283 282 281 280 279
307 306 308 310 307 303 301 300 298 295 292 290 288 287 285 284 284 286 288 291 293 294 293 291 290 289 290 291 293 295 298 299 301 302 302 302 302 302 302 302 302 301 301 301 300 300 300 299 299 298 298 298 298 298 298 298 299 298 298 298 298 298 298 298 298 298 298 297 297 297 296 295 294 292 291 290 289 287 286 285 284 284 282 281 280 279
304 304 306 305 302 300 299 296 293 292 291 288 287 286 286 287 288 291 294 296 296 296 295 294 293 291 291 291 294 296 299 300 301 302 302 301 301 301 301 301 300 300 300 299 299 299 298 298 298 298 297 298 298 298 299 299 299 299 299 299 299 298 299 299 299 299 298 298 297 297 296 295 293 292 291 290 288 287 286 285 284 283 281 280 279 278
299 298 299 295 292 291 292 291 290 290 291 291 291 290 289 290 291 293 295 296 296 296 296 295 293 292 291 291 294 297 299 300 301 301 300 300 299 299 299 299 299 298 298 298 298 298 297 297 297 297 297 298 298 298 299 299 299 299 299 299 299 299 299 299 299 299 298 297 297 296 295 294 292 291 290 289 287 286 285 283 282 281 280 278 277 276
294 293 290 290 290 289 287 287 288 289 290 293 295 296 295 294 293 293 293 292 293 295 297 297 296 294 293 293 295 296 297 298 298 298 297 297 296 296 297 297 297 297 297 297 297 297 297 297 297 297 298 298 298 298 299 298 298 298 298 298 299 299 299 299 298 298 297 296 295 294 293 292 291 290 289 287 286 285 283 282 281 280 278 277 276 275
289 291 290 290 292 295 294 291 288 287 288 290 293 295 298 297 296 294 294 295 296 297 299 301 300 298 296 295 294 294 293 293 293 293 294 293 293 294 294 295 295 296 296 296 296 297 297 297 298 298 298 298 298 298 298 298 298 298 298 298 298 298 298 297 297 296 295 295 294 293 292 291 290 289 287 286 285 284 282 281 280 279 278 277 276 275
284 288 292 292 292 293 295 294 291 287 284 285 286 288 292 295 298 300 302 302 302 302 301 301 300 299 297 296 294 293 292 292 291 291 291 290 291 292 293 293 294 295 295 296 296 297 297 298 298 298 298 298 297 297 297 297 297 297 297 297 297 297 296 296 295 294 293 293 292 291 290 289 288 287 286 285 284 283 282 281 280 279 278 278 277 276
286 289 292 294 292 289 286 286 286 286 284 283 281 279 278 289 300 306 308 307 306 305 302 300 298 298 298 298 296 294 293 292 290 289 289 289 289 291 291 292 293 294 295 296 297 297 297 297 297 297 297 297 297 297 297 297 297 296 296 296 296 295 294 294 293 292 291 291 290 289 289 288 287 286 286 285 284 283 282 281 280 280 279 278 278 277
291 295 294 294 293 290 284 280 280 282 284 286 287 287 289 297 305 308 307 307 306 305 303 300 296 294 294 296 296 295 292 289 288 286 286 286 287 289 290 292 293 294 295 296 296 296 296 297 297 296 296 296 296 296 296 296 296 295 295 294 294 293 292 292 291 290 290 290 290 289 289 288 288 287 287 286 285 284 284 282 281 281 280 279 278 278
294 296 295 293 292 291 289 288 288 289 291 295 300 304 307 310 310 306 302 301 302 303 303 301 298 294 290 290 290 291 289 286 285 285 285 286 287 289 292 293 293 293 294 295 294 294 295 296 296 295 295 295 295 295 295 294 294 294 293 293 292 291 291 291 291 291 291 291 291 291 291 290 290 289 289 288 287 286 285 283 282 281 280 279 278 278
299 299 297 296 295 293 292 294 296 299 301 304 306 308 309 310 308 304 299 297 298 299 300 298 296 294 291 288 285 283 284 285 286 287 287 287 289 293 297 297 296 295 295 295 293 292 293 295 295 294 294 293 293 293 293 292 292 291 291 291 291 291 292 292 292 292 292 292 292 292 292 291 291 290 289 288 287 286 285 284 283 282 281 280 279 278
301 300 298 295 293 292 293 297 300 302 305 308 309 308 307 306 304 302 299 299 300 300 300 296 293 290 287 284 282 281 282 286 291 293 294 292 292 295 300 299 298 296 295 294 292 292 293 293 291 290 290 289 289 289 289 290 290 291 291 292 293 293 293 293 294 293 293 293 293 293 292 292 291 290 290 289 288 287 286 285 284 283 281 280 279 278
298 296 293 291 290 292 296 301 305 306 307 308 308 307 306 304 303 301 300 300 301 301 300 297 295 292 286 282 281 285 289 294 298 300 299 295 294 297 302 301 298 296 294 292 290 291 292 290 288 286 286 287 288 289 290 291 292 292 293 293 294 294 294 294 294 294 294 294 294 293 293 292 292 291 290 289 289 288 287 286 285 283 282 281 280 279
294 292 290 291 292 296 302 304 305 305 306 306 305 303 301 301 300 300 298 298 297 297 294 294 295 296 296 294 292 293 303 307 307 303 300 296 296 298 303 300 296 294 292 290 289 289 291 289 288 286 286 287 289 291 292 292 293 293 294 294 294 294 294 295 295 295 295 295 295 294 294 293 293 292 291 290 289 289 287 286 285 284 283 282 281 280
292 291 291 292 295 299 304 304 303 302 302 301 301 299 297 296 295 295 293 292 290 289 288 287 288 290 295 298 301 308 323 318 312 305 300 296 296 298 302 297 292 290 289 288 287 288 288 287 286 286 286 289 291 292 293 294 294 294 294 294 294 295 295 295 296 296 296 296 296 296 295 295 294 293 292 291 290 289 288 287 286 285 284 283 282 281
291 291 292 294 297 300 301 300 300 300 300 299 299 299 296 293 291 290 287 284 282 280 281 282 283 284 287 290 296 309 326 319 312 304 299 295 295 297 302 296 290 286 285 285 286 287 287 286 286 287 288 291 292 293 294 294 294 294 294 295 295 296 296 296 296 297 297 297 297 296 296 295 294 293 292 291 290 289 288 287 286 285 284 283 283 282
289 289 290 293 296 297 295 293 294 295 296 296 296 295 293 291 289 285 281 278 277 276 277 280 282 284 286 289 296 306 319 317 310 301 294 292 293 295 299 294 289 286 285 285 286 287 288 287 287 288 290 291 292 293 293 294 294 294 295 295 296 296 296 297 297 297 297 297 296 296 295 294 293 292 291 291 290 289 289 289 288 287 286 285 284 283
288 287 288 292 294 294 291 290 290 292 293 293 292 289 286 285 283 280 278 279 279 280 281 280 283 287 294 297 301 306 315 314 306 298 293 291 290 290 294 290 287 285 285 285 286 287 288 287 287 288 290 291 292 293 293 294 294 295 295 296 296 296 297 297 296 296 296 295 295 294 294 293 293 293 293 293 292 292 291 291 290 289 288 286 285 284
286 287 288 288 287 286 286 287 289 289 288 287 284 281 279 279 279 279 281 284 287 288 289 289 292 296 299 298 299 301 309 305 298 292 292 288 287 287 291 288 285 285 284 286 288 289 289 288 288 288 289 291 292 293 294 294 295 295 296 296 296 296 296 296 296 295 294 294 294 294 294 294 294 295 295 294 294 293 292 291 290 289 288 286 285 284
281 283 286 285 284 283 284 286 286 284 281 277 273 271 271 272 275 279 286 292 296 298 298 298 297 297 296 295 295 297 298 292 287 285 285 284 285 287 292 291 288 286 284 287 290 292 291 289 287 287 288 291 292 293 294 295 295 296 296 296 296 296 296 295 295 294 294 294 294 295 295 296 296 296 295 294 294 293 291 290 289 288 287 286 286 285
281 283 285 285 284 282 281 281 280 278 276 272 270 268 268 273 280 290 300 304 304 303 302 300 298 297 295 294 294 293 291 286 281 279 279 280 284 287 292 293 290 288 286 288 290 291 290 287 285 285 287 290 292 293 294 295 295 295 296 296 295 295 295 294 294 294 295 295 295 296 296 296 295 295 294 293 292 292 291 290 289 288 288 287 286 285
285 284 283 282 281 280 279 279 280 282 283 282 281 281 285 294 301 305 305 305 304 303 302 300 298 296 295 295 294 291 289 282 277 275 277 280 283 285 289 292 291 289 288 288 288 287 287 287 287 288 288 290 292 293 293 294 294 294 294 294 294 294 294 295 295 295 296 295 295 295 295 294 294 293 293 292 292 291 291 290 289 289 288 288 287 286
287 284 283 283 283 284 284 285 287 290 293 296 299 304 308 310 309 307 303 301 301 300 299 296 293 292 293 294 292 290 291 284 277 275 277 281 284 286 288 288 287 286 287 287 288 288 289 290 290 290 290 289 290 291 291 292 292 293 293 294 294 295 295 295 295 295 295 295 294 294 293 293 293 292 292 292 291 291 291 290 290 289 289 289 288 287
286 285 285 285 286 287 289 291 294 297 301 305 307 309 309 309 305 300 295 296 297 297 295 292 291 292 293 291 290 289 292 291 286 280 277 280 282 283 285 286 286 286 288 289 290 291 291 290 290 289 288 286 286 287 288 289 291 292 293 294 295 295 295 295 294 294 294 293 293 293 293 292 292 292 292 292 292 291 291 291 291 291 291 290 289 287
285 285 285 287 289 292 296 299 303 305 307 307 306 305 303 301 296 291 289 293 295 293 289 288 289 291 292 291 290 290 291 290 287 281 275 275 276 279 284 288 290 290 292 292 291 289 287 285 284 284 283 282 282 283 285 289 291 293 294 294 294 294 293 293 292 292 292 292 292 292 292 292 292 292 292 292 292 292 292 292 292 292 292 291 289 287
283 284 287 291 295 300 304 306 307 306 304 302 301 300 298 294 289 287 288 292 292 288 283 283 285 286 288 290 291 290 288 285 282 276 272 274 275 279 287 292 293 294 295 294 292 287 280 277 276 277 279 282 283 285 288 291 292 293 292 292 291 291 291 291 291 291 291 291 292 292 292 292 292 292 293 293 293 293 292 292 292 292 292 290 287 283
285 288 292 298 302 305 306 305 302 300 298 297 297 297 295 290 283 281 283 285 283 281 280 281 283 284 288 291 292 291 286 282 278 276 283 283 282 284 291 292 292 293 297 297 295 291 283 277 274 276 281 286 288 289 290 290 290 289 288 289 288 288 288 289 289 290 290 290 291 291 292 292 292 293 293 292 292 292 292 292 292 291 289 286 282 279
301 303 303 304 304 304 301 297 294 294 294 294 294 293 290 283 277 274 274 275 275 275 277 280 281 283 286 290 291 290 287 287 291 298 303 290 285 285 291 291 290 290 292 294 295 295 295 290 284 281 284 287 288 288 287 287 286 286 285 286 286 286 286 287 288 289 289 290 290 291 291 292 292 292 291 291 291 290 290 290 290 290 287 284 280 277
308 307 305 304 301 299 296 294 293 291 290 289 287 284 281 278 275 272 271 270 270 272 274 277 279 280 280 280 279 280 283 288 295 301 300 290 284 284 287 287 287 288 287 282 283 287 294 295 294 292 288 287 286 285 285 284 284 284 284 284 284 284 285 286 287 288 289 289 290 290 290 290 290 290 290 289 289 289 288 288 288 288 285 282 278 276
307 305 302 300 298 296 294 293 291 290 288 286 283 281 278 277 275 274 272 271 270 270 272 276 278 279 278 276 274 274 277 282 290 295 295 289 285 284 286 286 287 287 287 281 277 276 279 286 291 294 290 285 284 283 284 283 283 282 282 282 282 283 285 286 286 286 286 288 288 288 289 288 288 287 287 287 286 286 286 286 286 285 283 280 277 274
304 301 299 298 296 294 293 292 291 290 289 288 287 285 283 280 279 277 276 274 271 269 269 272 275 277 279 278 277 276 276 279 285 290 293 289 284 284 286 286 286 288 289 285 281 278 275 280 285 290 291 287 284 282 283 283 282 281 279 279 280 282 284 285 285 284 284 284 284 285 285 285 284 284 284 283 283 283 283 284 284 283 283 281 279 276
299 298 297 296 296 296 296 295 294 292 292 291 290 289 288 286 284 281 278 276 273 270 268 267 269 271 274 276 278 279 279 281 285 289 290 286 283 283 285 284 285 287 288 285 284 283 280 281 283 286 290 290 287 283 281 281 281 281 279 277 278 280 281 282 282 282 282 282 281 280 279 278 278 278 278 278 279 279 280 282 283 283 283 283 282 280
297 296 297 297 298 298 299 298 297 297 296 294 293 292 291 290 288 286 283 280 278 276 274 271 268 267 267 269 271 275 277 281 285 286 286 283 281 281 282 281 283 285 285 284 283 282 281 282 283 284 286 288 288 287 284 282 282 283 282 281 280 279 279 278 279 279 280 280 279 277 276 274 273 272 272 275 277 278 280 282 283 283 284 283 282 280
296 297 298 299 299 299 298 298 299 299 298 297 296 295 294 293 292 290 288 285 282 280 278 276 273 270 266 265 265 268 272 277 280 281 281 279 278 276 276 278 280 281 280 281 282 282 282 284 284 285 284 284 286 289 292 292 290 286 284 283 283 281 280 278 277 276 276 276 275 275 274 274 273 272 273 276 278 280 281 282 282 282 282 281 280 278
297 298 299 299 299 299 298 298 299 299 299 299 299 298 297 295 294 292 291 287 284 281 279 277 275 272 269 268 267 267 269 273 275 276 276 275 273 271 272 275 276 276 274 275 277 280 282 283 286 287 286 283 283 285 290 292 292 289 287 285 283 281 279 278 276 274 273 274 275 276 277 277 276 276 276 277 278 278 278 277 277 277 278 278 277 276
297 297 299 300 300 301 300 300 299 299 299 299 298 298 297 295 294 292 290 288 285 282 280 278 277 275 273 271 269 269 270 271 272 272 272 271 269 268 269 272 273 274 272 272 273 274 276 278 281 283 286 286 286 286 286 287 287 288 289 288 284 279 276 276 275 275 275 276 278 279 279 277 276 275 274 273 272 271 272 272 272 273 274 275 275 276
298 299 299 301 302 301 300 299 298 299 299 298 297 297 297 296 294 293 290 288 285 283 280 279 277 276 275 274 273 273 273 272 272 271 270 267 265 264 265 268 271 273 273 272 270 270 271 273 275 277 279 282 285 286 287 285 284 286 290 290 287 283 281 282 281 279 277 275 274 274 275 273 272 270 270 269 267 267 267 269 271 273 273 273 274 276
303 302 302 303 302 300 297 297 297 298 299 298 298 298 298 297 296 295 293 290 287 285 284 283 282 280 278 276 275 274 273 272 271 269 267 264 262 261 262 263 267 270 272 271 270 268 268 271 273 275 276 277 279 281 281 281 283 285 288 286 285 285 287 284 282 279 276 273 271 271 273 275 275 274 272 270 268 265 263 266 269 271 272 268 267 269
303 303 302 302 301 299 298 298 298 298 299 299 298 297 296 296 296 295 295 294 293 292 292 291 291 289 288 285 281 277 273 270 268 266 265 262 260 259 260 261 263 266 269 270 269 268 267 268 270 272 273 275 277 279 280 280 281 282 283 283 285 286 287 282 278 276 277 276 275 274 275 276 276 275 273 271 270 267 264 263 264 265 267 265 262 260
300 299 298 298 297 297 298 299 300 301 301 300 297 295 294 294 294 294 294 293 294 294 295 294 292 291 291 291 290 288 283 275 270 268 266 263 261 260 260 259 260 261 264 267 268 269 267 267 267 268 270 272 274 276 279 281 282 282 280 281 284 286 287 284 282 281 279 278 277 276 274 274 273 272 271 271 270 268 266 263 262 261 260 261 260 258
296 295 296 296 298 299 301 302 302 302 302 300 297 296 294 294 293 293 292 291 292 293 293 292 291 288 286 287 289 292 293 290 283 276 271 268 265 263 264 262 261 260 259 262 266 270 272 270 268 267 269 271 272 273 275 278 279 280 280 279 279 279 278 282 286 287 283 279 276 273 271 271 271 272 272 271 269 267 264 262 260 259 257 258 258 258
294 296 298 300 302 304 304 303 303 302 301 299 297 296 296 296 295 294 292 291 291 291 290 291 290 289 286 287 289 293 295 295 294 290 283 277 275 273 272 270 268 265 261 260 261 265 269 271 272 272 272 271 270 270 272 275 277 278 278 278 278 276 274 278 281 283 282 280 278 275 273 272 273 274 274 272 270 268 267 267 267 266 264 260 259 258
298 300 302 303 304 304 303 303 303 303 300 298 296 296 297 297 296 294 291 290 290 290 289 289 288 287 286 289 292 293 294 296 296 296 295 290 285 280 276 273 271 269 266 263 262 262 262 266 270 274 276 274 272 270 269 272 274 277 278 278 278 278 277 277 277 278 278 279 278 277 276 275 274 274 274 274 274 274 272 271 271 270 268 265 262 260
303 304 305 305 304 303 303 303 303 302 300 298 298 297 298 298 297 295 292 290 290 289 290 289 286 284 284 287 289 292 293 294 295 296 297 296 294 291 285 279 274 271 269 268 266 264 262 262 265 268 272 274 274 273 271 270 271 273 275 277 278 278 277 277 276 275 275 275 276 277 279 279 277 276 276 277 278 277 276 273 271 268 267 265 263 261
306 306 306 305 304 304 303 304 303 302 300 299 298 298 298 299 299 298 295 294 293 292 292 291 288 285 284 285 286 287 289 291 292 294 295 296 296 294 291 288 283 278 274 272 270 269 267 264 262 262 263 266 269 271 273 272 271 271 273 275 276 276 276 276 276 276 275 275 275 276 278 279 280 280 281 281 280 278 277 275 272 269 265 263 261 259
306 305 305 304 304 303 303 303 303 302 300 300 300 299 299 299 299 299 296 296 294 292 290 289 288 287 286 286 287 287 288 289 289 291 292 293 294 294 293 292 290 287 283 279 276 273 270 266 260 255 252 254 259 264 269 271 271 271 272 273 273 274 275 277 278 279 279 279 278 277 276 276 276 277 279 279 279 278 278 277 274 270 266 262 258 257
304 303 303 303 302 302 301 302 302 301 300 300 300 300 300 300 299 298 295 294 292 290 288 287 287 288 288 288 289 290 290 290 289 289 290 292 293 294 294 293 292 291 289 286 283 281 278 273 263 253 246 245 248 254 263 268 271 272 273 272 273 275 277 280 281 282 282 282 281 280 278 276 274 273 272 273 275 277 279 278 276 272 268 263 259 257
305 304 303 302 301 300 300 301 300 299 299 299 299 300 300 300 300 298 297 295 293 291 289 287 287 286 287 289 289 290 290 290 290 290 291 292 293 293 293 292 292 292 292 291 290 289 288 286 280 270 256 249 248 250 258 265 271 276 277 276 276 278 280 281 282 283 283 283 283 281 280 277 274 271 268 270 273 276 279 279 277 275 273 270 266 264